20040115,000028,795450,32.185833,-123.622500,NaN,16.653,32.945,42.206,  NaN,0.0, NaN, NaN, NaN, NaN, NaN,388.336,16.40,1018.46,88.30,NaN,345.0,NaN,1.9,NaN,248.0,NaN,3.3,NaN,NaN, NaN,NaN,63.0,NaN,NaN,NaN,2,9.8,000026,   NaN,60.0,     NaN,      NaN,NaN,6.8,NaN,16.657, NaN,NaN,NaN, NaN, NaN

20040115,000058,795480,32.186500,-123.621000,NaN,16.645,32.947,42.202,  NaN,0.0, NaN, NaN, NaN, NaN, NaN,387.981,16.30,1018.52,88.30,NaN,344.0,NaN,1.9,NaN,247.7,NaN,3.5,NaN,NaN, NaN,NaN,61.0,NaN,NaN,NaN,2,10.1,000056,   NaN,59.2,     NaN,      NaN,NaN,6.7,NaN,16.650, NaN,NaN,NaN, NaN, NaN

20040115,000128,795510,32.187167,-123.619667,NaN,16.642,32.946,42.196,  NaN,0.0, NaN, NaN, NaN, NaN, NaN,387.993,16.40,1018.29,88.30,NaN,351.0,NaN,2.5,NaN,245.9,NaN,2.9,NaN,NaN, NaN,NaN,62.0,NaN,NaN,NaN,2,10.1,000086,   NaN,58.5,     NaN,      NaN,NaN,6.8,NaN,16.646, NaN,NaN,NaN, NaN, NaN

20040115,000158,795540,32.187833,-123.618167,NaN,16.644,32.944,42.197,  NaN,0.0, NaN, NaN, NaN, NaN, NaN,388.144,16.40,1018.40,88.40,NaN,351.0,NaN,2.2,NaN,248.3,NaN,2.8,NaN,NaN, NaN,NaN,62.0,NaN,NaN,NaN,2,9.9,000116,   NaN,60.9,     NaN,      NaN,NaN,6.5,NaN,16.648, NaN,NaN,NaN, NaN, NaN

20040115,000228,795570,32.188500,-123.616667,NaN,16.626,32.942,42.178,  NaN,0.0, NaN, NaN, NaN, NaN, NaN,387.933,16.40,1018.27,88.50,NaN,351.0,NaN,2.9,NaN,247.5,NaN,2.6,NaN,NaN, NaN,NaN,64.0,NaN,NaN,NaN,2,9.9,000146,   NaN,59.8,     NaN,      NaN,NaN,6.5,NaN,16.630, NaN,NaN,NaN, NaN, NaN

20040115,000258,795600,32.189167,-123.615333,NaN,16.620,32.941,42.170,  NaN,0.0, NaN, NaN, NaN, NaN, NaN,387.884,16.40,1018.47,88.40,NaN,350.0,NaN,2.2,NaN,246.7,NaN,3.0,NaN,NaN, NaN,NaN,63.0,NaN,NaN,NaN,2,10.1,000176,   NaN,60.0,     NaN,      NaN,NaN,6.6,NaN,16.624, NaN,NaN,NaN, NaN, NaN

20040115,000328,795630,32.189833,-123.613833,NaN,16.587,32.939,42.137,  NaN,0.0, NaN, NaN, NaN, NaN, NaN,387.278,16.40,1018.57,88.30,NaN,346.0,NaN,1.9,NaN,246.9,NaN,3.2,NaN,NaN, NaN,NaN,62.0,NaN,NaN,NaN,2,10.1,000206,   NaN,61.0,     NaN,      NaN,NaN,6.6,NaN,16.591, NaN,NaN,NaN, NaN, NaN

20040115,000358,795660,32.190500,-123.612500,NaN,16.561,32.936,42.110,  NaN,0.0, NaN, NaN, NaN, NaN, NaN,386.893,16.30,1018.48,88.10,NaN,349.0,NaN,1.5,NaN,246.1,NaN,3.5,NaN,NaN, NaN,NaN,62.0,NaN,NaN,NaN,2,9.9,000236,   NaN,61.8,     NaN,      NaN,NaN,6.4,NaN,16.565, NaN,NaN,NaN, NaN, NaN

20040115,000428,795690,32.191167,-123.611000,NaN,16.574,32.932,42.116,  NaN,0.0, NaN, NaN, NaN, NaN, NaN,387.545,16.40,1018.48,88.30,NaN,354.0,NaN,1.5,NaN,245.2,NaN,3.6,NaN,NaN, NaN,NaN,64.0,NaN,NaN,NaN,2,9.9,000266,   NaN,63.0,     NaN,      NaN,NaN,6.7,NaN,16.578, NaN,NaN,NaN, NaN, NaN

20040115,000458,795720,32.191833,-123.609667,NaN,16.575,32.932,42.118,  NaN,0.0, NaN, NaN, NaN, NaN, NaN,387.562,16.40,1018.50,88.30,NaN,3.0,NaN,1.6,NaN,237.0,NaN,3.3,NaN,NaN, NaN,NaN,62.0,NaN,NaN,NaN,2,10.0,000296,   NaN,59.0,     NaN,      NaN,NaN,6.8,NaN,16.579, NaN,NaN,NaN, NaN, NaN

20040115,000528,795750,32.192500,-123.608167,NaN,16.576,32.930,42.117,  NaN,0.0, NaN, NaN, NaN, NaN, NaN,387.693,16.40,1018.52,87.90,NaN,5.0,NaN,2.2,NaN,234.7,NaN,2.8,NaN,NaN, NaN,NaN,62.0,NaN,NaN,NaN,2,9.8,000326,   NaN,60.4,     NaN,      NaN,NaN,6.3,NaN,16.580, NaN,NaN,NaN, NaN, NaN

20040115,000558,795780,32.193167,-123.606833,NaN,16.569,32.931,42.110,  NaN,0.0, NaN, NaN, NaN, NaN, NaN,387.495,16.40,1018.32,87.60,NaN,11.0,NaN,2.6,NaN,230.4,NaN,2.6,NaN,NaN, NaN,NaN,63.0,NaN,NaN,NaN,2,9.9,000356,   NaN,61.4,     NaN,      NaN,NaN,6.4,NaN,16.573, NaN,NaN,NaN, NaN, NaN

20040115,000628,795810,32.193833,-123.605333,NaN,16.572,32.929,42.112,  NaN,0.0, NaN, NaN, NaN, NaN, NaN,387.685,16.40,1018.44,87.60,NaN,15.0,NaN,2.2,NaN,230.2,NaN,3.2,NaN,NaN, NaN,NaN,61.0,NaN,NaN,NaN,2,10.0,000386,   NaN,59.8,     NaN,      NaN,NaN,6.6,NaN,16.576, NaN,NaN,NaN, NaN, NaN

20040115,000658,795840,32.194500,-123.604000,NaN,16.561,32.931,42.103,  NaN,0.0, NaN, NaN, NaN, NaN, NaN,387.320,16.40,1018.37,87.90,NaN,14.0,NaN,1.5,NaN,233.7,NaN,3.6,NaN,NaN, NaN,NaN,60.0,NaN,NaN,NaN,2,10.0,000416,   NaN,59.9,     NaN,      NaN,NaN,6.6,NaN,16.565, NaN,NaN,NaN, NaN, NaN

20040115,000728,795870,32.195167,-123.602500,NaN,16.563,32.929,42.103,  NaN,0.0, NaN, NaN, NaN, NaN, NaN,387.514,16.40,1018.40,87.20,NaN,12.0,NaN,1.5,NaN,234.7,NaN,3.7,NaN,NaN, NaN,NaN,59.0,NaN,NaN,NaN,2,10.1,000446,   NaN,60.3,     NaN,      NaN,NaN,6.5,NaN,16.567, NaN,NaN,NaN, NaN, NaN

20040115,000758,795900,32.195833,-123.601000,NaN,16.564,32.930,42.105,  NaN,0.0, NaN, NaN, NaN, NaN, NaN,387.463,16.40,1018.34,87.50,NaN,13.0,NaN,2.0,NaN,233.3,NaN,3.3,NaN,NaN, NaN,NaN,63.0,NaN,NaN,NaN,2,10.0,000476,   NaN,61.0,     NaN,      NaN,NaN,6.5,NaN,16.568, NaN,NaN,NaN, NaN, NaN

20040115,000828,795930,32.196500,-123.599667,NaN,16.552,32.930,42.094,  NaN,0.0, NaN, NaN, NaN, NaN, NaN,387.170,16.60,1018.30,87.40,NaN,18.0,NaN,2.1,NaN,227.3,NaN,3.1,NaN,NaN, NaN,NaN,62.0,NaN,NaN,NaN,2,10.1,000506,   NaN,60.0,     NaN,      NaN,NaN,6.6,NaN,16.556, NaN,NaN,NaN, NaN, NaN

20040115,000858,795960,32.197167,-123.598167,NaN,16.560,32.928,42.100,  NaN,0.0, NaN, NaN, NaN, NaN, NaN,387.476,16.60,1018.37,87.40,NaN,21.0,NaN,1.6,NaN,230.5,NaN,3.6,NaN,NaN, NaN,NaN,61.0,NaN,NaN,NaN,2,10.0,000536,   NaN,60.5,     NaN,      NaN,NaN,6.8,NaN,16.564, NaN,NaN,NaN, NaN, NaN

20040115,000928,795990,32.197833,-123.596833,NaN,16.573,32.927,42.111,  NaN,0.0, NaN, NaN, NaN, NaN, NaN,387.835,16.60,1018.25,87.20,NaN,21.0,NaN,2.0,NaN,229.3,NaN,3.6,NaN,NaN, NaN,NaN,63.0,NaN,NaN,NaN,2,10.0,000566,   NaN,60.2,     NaN,      NaN,NaN,6.6,NaN,16.578, NaN,NaN,NaN, NaN, NaN

20040115,000958,796020,32.198500,-123.595333,NaN,16.584,32.928,42.122,  NaN,0.0, NaN, NaN, NaN, NaN, NaN,388.003,16.60,1018.31,87.50,NaN,22.0,NaN,1.9,NaN,226.1,NaN,3.3,NaN,NaN, NaN,NaN,62.0,NaN,NaN,NaN,2,10.0,000596,   NaN,60.0,     NaN,      NaN,NaN,6.8,NaN,16.588, NaN,NaN,NaN, NaN, NaN

20040115,001028,796050,32.199167,-123.593833,NaN,16.580,32.929,42.119,  NaN,0.0, NaN, NaN, NaN, NaN, NaN,387.860,16.60,1018.27,87.40,NaN,31.0,NaN,1.9,NaN,222.5,NaN,3.7,NaN,NaN, NaN,NaN,62.0,NaN,NaN,NaN,2,10.1,000626,   NaN,58.7,     NaN,      NaN,NaN,6.5,NaN,16.584, NaN,NaN,NaN, NaN, NaN

20040115,001058,796080,32.199833,-123.592500,NaN,16.582,32.930,42.122,  NaN,0.0, NaN, NaN, NaN, NaN, NaN,387.873,16.60,1018.33,87.50,NaN,27.0,NaN,1.9,NaN,225.2,NaN,3.7,NaN,NaN, NaN,NaN,63.0,NaN,NaN,NaN,2,10.2,000656,   NaN,60.5,     NaN,      NaN,NaN,6.7,NaN,16.586, NaN,NaN,NaN, NaN, NaN

20040115,001128,796110,32.200500,-123.591000,NaN,16.547,32.932,42.091,  NaN,0.0, NaN, NaN, NaN, NaN, NaN,386.895,16.60,1018.23,87.60,NaN,26.0,NaN,2.0,NaN,226.8,NaN,3.6,NaN,NaN, NaN,NaN,62.0,NaN,NaN,NaN,2,10.0,000686,   NaN,59.8,     NaN,      NaN,NaN,6.6,NaN,16.551, NaN,NaN,NaN, NaN, NaN

20040115,001158,796140,32.201167,-123.589500,NaN,16.531,32.932,42.077,  NaN,0.0, NaN, NaN, NaN, NaN, NaN,386.544,16.60,1018.31,87.50,NaN,23.0,NaN,2.2,NaN,224.3,NaN,3.3,NaN,NaN, NaN,NaN,62.0,NaN,NaN,NaN,2,10.2,000716,   NaN,59.9,     NaN,      NaN,NaN,6.0,NaN,16.535, NaN,NaN,NaN, NaN, NaN

20040115,001228,796170,32.202000,-123.588167,NaN,16.492,32.933,42.041,  NaN,0.0, NaN, NaN, NaN, NaN, NaN,385.664,16.60,1018.41,87.20,NaN,16.0,NaN,2.0,NaN,231.7,NaN,3.4,NaN,NaN, NaN,NaN,60.0,NaN,NaN,NaN,2,9.9,000746,   NaN,59.7,     NaN,      NaN,NaN,6.7,NaN,16.496, NaN,NaN,NaN, NaN, NaN

20040115,001258,796200,32.202667,-123.586667,NaN,16.487,32.931,42.033,  NaN,0.0, NaN, NaN, NaN, NaN, NaN,385.683,16.60,1018.37,87.50,NaN,9.0,NaN,1.7,NaN,237.2,NaN,3.6,NaN,NaN, NaN,NaN,62.0,NaN,NaN,NaN,2,10.1,000776,   NaN,61.3,     NaN,      NaN,NaN,6.8,NaN,16.491, NaN,NaN,NaN, NaN, NaN

20040115,001328,796230,32.203333,-123.585333,NaN,16.503,32.928,42.045,  NaN,0.0, NaN, NaN, NaN, NaN, NaN,386.278,16.60,1018.31,87.80,NaN,3.0,NaN,1.9,NaN,240.7,NaN,3.6,NaN,NaN, NaN,NaN,63.0,NaN,NaN,NaN,2,10.0,000806,   NaN,61.7,     NaN,      NaN,NaN,6.7,NaN,16.507, NaN,NaN,NaN, NaN, NaN

20040115,001358,796260,32.204000,-123.583833,NaN,16.528,32.928,42.069,  NaN,0.0, NaN, NaN, NaN, NaN, NaN,386.799,16.60,1018.41,87.60,NaN,0.0,NaN,1.4,NaN,240.5,NaN,3.7,NaN,NaN, NaN,NaN,60.0,NaN,NaN,NaN,2,10.0,000836,   NaN,60.9,     NaN,      NaN,NaN,6.9,NaN,16.532, NaN,NaN,NaN, NaN, NaN

20040115,001428,796290,32.204667,-123.582333,NaN,16.544,32.928,42.084,  NaN,0.0, NaN, NaN, NaN, NaN, NaN,387.128,16.60,1018.28,87.50,NaN,5.0,NaN,1.5,NaN,237.8,NaN,3.6,NaN,NaN, NaN,NaN,61.0,NaN,NaN,NaN,2,9.9,000866,   NaN,59.5,     NaN,      NaN,NaN,6.8,NaN,16.548, NaN,NaN,NaN, NaN, NaN

20040115,001458,796320,32.205333,-123.581000,NaN,16.550,32.929,42.092,  NaN,0.0, NaN, NaN, NaN, NaN, NaN,387.174,16.60,1018.35,87.40,NaN,21.0,NaN,1.4,NaN,234.0,NaN,3.9,NaN,NaN, NaN,NaN,61.0,NaN,NaN,NaN,2,9.9,000896,   NaN,60.4,     NaN,      NaN,NaN,6.7,NaN,16.554, NaN,NaN,NaN, NaN, NaN

20040115,001528,796350,32.206000,-123.579500,NaN,16.559,32.930,42.100,  NaN,0.0, NaN, NaN, NaN, NaN, NaN,387.327,16.60,1018.33,87.20,NaN,19.0,NaN,1.5,NaN,234.8,NaN,3.9,NaN,NaN, NaN,NaN,61.0,NaN,NaN,NaN,2,9.9,000926,   NaN,61.0,     NaN,      NaN,NaN,6.8,NaN,16.563, NaN,NaN,NaN, NaN, NaN

20040115,001558,796380,32.206667,-123.578000,NaN,16.566,32.930,42.107,  NaN,0.0, NaN, NaN, NaN, NaN, NaN,387.437,16.60,1018.38,87.50,NaN,19.0,NaN,1.9,NaN,228.1,NaN,3.3,NaN,NaN, NaN,NaN,62.0,NaN,NaN,NaN,2,9.9,000956,   NaN,60.2,     NaN,      NaN,NaN,6.8,NaN,16.570, NaN,NaN,NaN, NaN, NaN

20040115,001628,796410,32.207333,-123.576667,NaN,16.556,32.933,42.100,  NaN,0.0, NaN, NaN, NaN, NaN, NaN,387.066,16.60,1018.45,87.50,NaN,15.0,NaN,1.7,NaN,232.9,NaN,3.4,NaN,NaN, NaN,NaN,61.0,NaN,NaN,NaN,2,10.1,000986,   NaN,60.5,     NaN,      NaN,NaN,6.8,NaN,16.560, NaN,NaN,NaN, NaN, NaN

20040115,001658,796440,32.208000,-123.575167,NaN,16.546,32.933,42.091,  NaN,0.0, NaN, NaN, NaN, NaN, NaN,386.852,16.60,1018.40,87.50,NaN,15.0,NaN,2.2,NaN,228.9,NaN,3.2,NaN,NaN, NaN,NaN,62.0,NaN,NaN,NaN,2,10.1,001016,   NaN,60.6,     NaN,      NaN,NaN,6.4,NaN,16.550, NaN,NaN,NaN, NaN, NaN

20040115,001728,796470,32.208667,-123.573833,NaN,16.539,32.932,42.084,  NaN,0.0, NaN, NaN, NaN, NaN, NaN,386.742,16.60,1018.33,87.60,NaN,13.0,NaN,2.1,NaN,230.3,NaN,3.4,NaN,NaN, NaN,NaN,63.0,NaN,NaN,NaN,2,9.9,001046,   NaN,59.6,     NaN,      NaN,NaN,6.7,NaN,16.543, NaN,NaN,NaN, NaN, NaN

20040115,001758,796500,32.209333,-123.572333,NaN,16.540,32.931,42.083,  NaN,0.0, NaN, NaN, NaN, NaN, NaN,386.852,16.60,1018.40,87.50,NaN,12.0,NaN,1.9,NaN,233.1,NaN,3.4,NaN,NaN, NaN,NaN,62.0,NaN,NaN,NaN,2,10.3,001076,   NaN,60.5,     NaN,      NaN,NaN,6.4,NaN,16.543, NaN,NaN,NaN, NaN, NaN

20040115,001828,796530,32.210000,-123.570833,NaN,16.544,32.931,42.089,  NaN,0.0, NaN, NaN, NaN, NaN, NaN,386.903,16.40,1018.34,87.20,NaN,15.0,NaN,1.5,NaN,235.7,NaN,3.8,NaN,NaN, NaN,NaN,62.0,NaN,NaN,NaN,2,10.1,001106,   NaN,61.6,     NaN,      NaN,NaN,6.7,NaN,16.549, NaN,NaN,NaN, NaN, NaN

20040115,001858,796560,32.210667,-123.569500,NaN,16.549,32.932,42.093,  NaN,0.0, NaN, NaN, NaN, NaN, NaN,386.996,16.60,1018.35,87.80,NaN,4.0,NaN,2.0,NaN,235.9,NaN,3.7,NaN,NaN, NaN,NaN,60.0,NaN,NaN,NaN,2,10.0,001136,   NaN,58.1,     NaN,      NaN,NaN,6.3,NaN,16.554, NaN,NaN,NaN, NaN, NaN

20040115,001928,796590,32.211333,-123.568000,NaN,16.561,32.932,42.104,  NaN,0.0, NaN, NaN, NaN, NaN, NaN,387.206,16.60,1018.40,87.60,NaN,355.0,NaN,1.1,NaN,242.5,NaN,4.0,NaN,NaN, NaN,NaN,61.0,NaN,NaN,NaN,2,9.9,001166,   NaN,61.2,     NaN,      NaN,NaN,6.8,NaN,16.564, NaN,NaN,NaN, NaN, NaN

20040115,001958,796620,32.212000,-123.566667,NaN,16.573,32.933,42.117,  NaN,0.0, NaN, NaN, NaN, NaN, NaN,387.391,16.60,1018.55,87.60,NaN,346.0,NaN,1.1,NaN,245.0,NaN,4.0,NaN,NaN, NaN,NaN,63.0,NaN,NaN,NaN,2,9.8,001196,   NaN,61.7,     NaN,      NaN,NaN,6.9,NaN,16.577, NaN,NaN,NaN, NaN, NaN

20040115,002028,796650,32.212667,-123.565167,NaN,16.578,32.934,42.123,  NaN,0.0, NaN, NaN, NaN, NaN, NaN,387.420,16.60,1018.56,87.60,NaN,352.0,NaN,0.8,NaN,242.9,NaN,4.3,NaN,NaN, NaN,NaN,62.0,NaN,NaN,NaN,2,10.0,001226,   NaN,61.1,     NaN,      NaN,NaN,6.7,NaN,16.582, NaN,NaN,NaN, NaN, NaN

20040115,002058,796680,32.213333,-123.563667,NaN,16.579,32.934,42.124,  NaN,0.0, NaN, NaN, NaN, NaN, NaN,387.462,16.60,1018.35,87.50,NaN,344.0,NaN,1.2,NaN,242.1,NaN,4.4,NaN,NaN, NaN,NaN,61.0,NaN,NaN,NaN,2,9.9,001256,   NaN,59.4,     NaN,      NaN,NaN,6.7,NaN,16.582, NaN,NaN,NaN, NaN, NaN

20040115,002128,796710,32.214000,-123.562333,NaN,16.585,32.935,42.131,  NaN,0.0, NaN, NaN, NaN, NaN, NaN,387.553,16.60,1018.51,87.80,NaN,345.0,NaN,0.8,NaN,245.1,NaN,4.2,NaN,NaN, NaN,NaN,62.0,NaN,NaN,NaN,2,9.7,001286,   NaN,61.6,     NaN,      NaN,NaN,6.6,NaN,16.589, NaN,NaN,NaN, NaN, NaN

20040115,002158,796740,32.214667,-123.560833,NaN,16.595,32.934,42.139,  NaN,0.0, NaN, NaN, NaN, NaN, NaN,387.812,16.60,1018.42,87.80,NaN,352.0,NaN,2.0,NaN,242.8,NaN,3.5,NaN,NaN, NaN,NaN,62.0,NaN,NaN,NaN,2,9.9,001316,   NaN,59.5,     NaN,      NaN,NaN,6.1,NaN,16.599, NaN,NaN,NaN, NaN, NaN

20040115,002228,796770,32.215333,-123.559500,NaN,16.606,32.934,42.150,  NaN,0.0, NaN, NaN, NaN, NaN, NaN,388.043,16.60,1018.52,88.00,NaN,351.0,NaN,1.1,NaN,243.3,NaN,4.0,NaN,NaN, NaN,NaN,60.0,NaN,NaN,NaN,2,10.0,001346,   NaN,60.7,     NaN,      NaN,NaN,6.8,NaN,16.610, NaN,NaN,NaN, NaN, NaN

20040115,002258,796800,32.216000,-123.558000,NaN,16.618,32.936,42.163,  NaN,0.0, NaN, NaN, NaN, NaN, NaN,388.180,16.60,1018.34,87.90,NaN,350.0,NaN,1.6,NaN,246.2,NaN,3.5,NaN,NaN, NaN,NaN,61.0,NaN,NaN,NaN,2,9.9,001376,   NaN,60.6,     NaN,      NaN,NaN,6.8,NaN,16.622, NaN,NaN,NaN, NaN, NaN

20040115,002328,796830,32.216667,-123.556667,NaN,16.615,32.938,42.162,  NaN,0.0, NaN, NaN, NaN, NaN, NaN,388.012,16.60,1018.53,87.90,NaN,349.0,NaN,1.1,NaN,242.6,NaN,3.9,NaN,NaN, NaN,NaN,60.0,NaN,NaN,NaN,2,9.9,001406,   NaN,60.4,     NaN,      NaN,NaN,6.6,NaN,16.619, NaN,NaN,NaN, NaN, NaN

20040115,002358,796860,32.217333,-123.555167,NaN,16.600,32.938,42.149,  NaN,0.0, NaN, NaN, NaN, NaN, NaN,387.658,16.60,1018.46,87.90,NaN,354.0,NaN,1.7,NaN,245.5,NaN,3.3,NaN,NaN, NaN,NaN,62.0,NaN,NaN,NaN,2,10.1,001436,   NaN,61.3,     NaN,      NaN,NaN,6.8,NaN,16.605, NaN,NaN,NaN, NaN, NaN

20040115,002428,796890,32.218000,-123.553667,NaN,16.598,32.937,42.146,  NaN,0.0, NaN, NaN, NaN, NaN, NaN,387.644,16.60,1018.31,87.90,NaN,355.0,NaN,1.6,NaN,243.0,NaN,3.4,NaN,NaN, NaN,NaN,63.0,NaN,NaN,NaN,2,10.1,001466,   NaN,60.1,     NaN,      NaN,NaN,6.7,NaN,16.602, NaN,NaN,NaN, NaN, NaN

20040115,002458,796920,32.218667,-123.552333,NaN,16.596,32.938,42.144,  NaN,0.0, NaN, NaN, NaN, NaN, NaN,387.585,16.60,1018.49,87.80,NaN,354.0,NaN,1.9,NaN,241.5,NaN,3.5,NaN,NaN, NaN,NaN,63.0,NaN,NaN,NaN,2,10.1,001496,   NaN,59.0,     NaN,      NaN,NaN,6.7,NaN,16.600, NaN,NaN,NaN, NaN, NaN

20040115,002528,796950,32.219333,-123.550833,NaN,16.588,32.938,42.138,  NaN,0.0, NaN, NaN, NaN, NaN, NaN,387.383,16.60,1018.42,87.60,NaN,355.0,NaN,1.1,NaN,243.2,NaN,3.9,NaN,NaN, NaN,NaN,62.0,NaN,NaN,NaN,2,9.9,001526,   NaN,61.4,     NaN,      NaN,NaN,6.6,NaN,16.593, NaN,NaN,NaN, NaN, NaN

20040115,002558,796980,32.220000,-123.549500,NaN,16.586,32.938,42.135,  NaN,0.0, NaN, NaN, NaN, NaN, NaN,387.325,16.60,1018.42,87.90,NaN,348.0,NaN,0.8,NaN,242.4,NaN,4.6,NaN,NaN, NaN,NaN,63.0,NaN,NaN,NaN,2,9.8,001556,   NaN,61.3,     NaN,      NaN,NaN,6.7,NaN,16.590, NaN,NaN,NaN, NaN, NaN

20040115,002628,797010,32.220667,-123.548000,NaN,16.586,32.938,42.135,  NaN,0.0, NaN, NaN, NaN, NaN, NaN,387.370,16.60,1018.48,88.00,NaN,343.0,NaN,1.0,NaN,243.6,NaN,4.4,NaN,NaN, NaN,NaN,61.0,NaN,NaN,NaN,2,9.9,001586,   NaN,60.8,     NaN,      NaN,NaN,6.8,NaN,16.590, NaN,NaN,NaN, NaN, NaN

20040115,002658,797040,32.221333,-123.546500,NaN,16.586,32.937,42.134,  NaN,0.0, NaN, NaN, NaN, NaN, NaN,387.373,16.60,1018.38,87.60,NaN,347.0,NaN,1.4,NaN,243.9,NaN,4.0,NaN,NaN, NaN,NaN,62.0,NaN,NaN,NaN,2,10.0,001616,   NaN,59.8,     NaN,      NaN,NaN,6.5,NaN,16.590, NaN,NaN,NaN, NaN, NaN

20040115,002728,797070,32.222000,-123.545167,NaN,16.581,32.938,42.131,  NaN,0.0, NaN, NaN, NaN, NaN, NaN,387.251,16.60,1018.48,87.90,NaN,348.0,NaN,2.0,NaN,247.4,NaN,3.4,NaN,NaN, NaN,NaN,62.0,NaN,NaN,NaN,2,10.0,001646,   NaN,61.1,     NaN,      NaN,NaN,6.7,NaN,16.585, NaN,NaN,NaN, NaN, NaN

20040115,002758,797100,32.222667,-123.543667,NaN,16.588,32.937,42.135,  NaN,0.0, NaN, NaN, NaN, NaN, NaN,387.476,16.60,1018.52,88.00,NaN,336.0,NaN,1.1,NaN,246.4,NaN,4.2,NaN,NaN, NaN,NaN,62.0,NaN,NaN,NaN,2,9.9,001676,   NaN,61.0,     NaN,      NaN,NaN,6.8,NaN,16.592, NaN,NaN,NaN, NaN, NaN

20040115,002828,797130,32.223333,-123.542333,NaN,16.603,32.936,42.149,  NaN,0.0, NaN, NaN, NaN, NaN, NaN,387.850,16.60,1018.39,87.90,NaN,343.0,NaN,1.1,NaN,244.4,NaN,4.1,NaN,NaN, NaN,NaN,62.0,NaN,NaN,NaN,2,9.8,001706,   NaN,59.8,     NaN,      NaN,NaN,6.6,NaN,16.607, NaN,NaN,NaN, NaN, NaN

20040115,002858,797160,32.224000,-123.540833,NaN,16.600,32.938,42.148,  NaN,0.0, NaN, NaN, NaN, NaN, NaN,387.661,16.60,1018.44,88.00,NaN,340.0,NaN,1.1,NaN,243.8,NaN,4.3,NaN,NaN, NaN,NaN,61.0,NaN,NaN,NaN,2,10.0,001736,   NaN,59.7,     NaN,      NaN,NaN,6.8,NaN,16.604, NaN,NaN,NaN, NaN, NaN

20040115,002928,797190,32.224667,-123.539333,NaN,16.599,32.937,42.146,  NaN,0.0, NaN, NaN, NaN, NaN, NaN,387.666,16.60,1018.51,88.10,NaN,337.0,NaN,1.6,NaN,251.4,NaN,3.7,NaN,NaN, NaN,NaN,62.0,NaN,NaN,NaN,2,10.0,001766,   NaN,61.4,     NaN,      NaN,NaN,6.7,NaN,16.602, NaN,NaN,NaN, NaN, NaN

20040115,002958,797220,32.225333,-123.538000,NaN,16.602,32.936,42.148,  NaN,0.0, NaN, NaN, NaN, NaN, NaN,387.788,16.60,1018.41,88.00,NaN,337.0,NaN,1.7,NaN,250.6,NaN,3.5,NaN,NaN, NaN,NaN,63.0,NaN,NaN,NaN,2,9.8,001796,   NaN,59.3,     NaN,      NaN,NaN,6.5,NaN,16.606, NaN,NaN,NaN, NaN, NaN

20040115,003028,797250,32.226000,-123.536500,NaN,16.607,32.937,42.153,  NaN,0.0, NaN, NaN, NaN, NaN, NaN,387.883,16.60,1018.54,87.80,NaN,329.0,NaN,1.6,NaN,252.4,NaN,3.8,NaN,NaN, NaN,NaN,62.0,NaN,NaN,NaN,2,10.0,001826,   NaN,60.6,     NaN,      NaN,NaN,6.6,NaN,16.611, NaN,NaN,NaN, NaN, NaN

20040115,003058,797280,32.226667,-123.535167,NaN,16.608,32.937,42.155,  NaN,0.0, NaN, NaN, NaN, NaN, NaN,387.879,16.40,1018.57,88.00,NaN,322.0,NaN,1.5,NaN,253.1,NaN,4.0,NaN,NaN, NaN,NaN,62.0,NaN,NaN,NaN,2,9.9,001856,   NaN,60.2,     NaN,      NaN,NaN,6.8,NaN,16.612, NaN,NaN,NaN, NaN, NaN

20040115,003128,797310,32.227333,-123.533667,NaN,16.600,32.938,42.149,  NaN,0.0, NaN, NaN, NaN, NaN, NaN,387.635,16.40,1018.52,88.30,NaN,323.0,NaN,2.3,NaN,259.7,NaN,3.7,NaN,NaN, NaN,NaN,62.0,NaN,NaN,NaN,2,10.0,001886,   NaN,59.9,     NaN,      NaN,NaN,6.7,NaN,16.605, NaN,NaN,NaN, NaN, NaN

20040115,003158,797340,32.228000,-123.532167,NaN,16.592,32.938,42.140,  NaN,0.0, NaN, NaN, NaN, NaN, NaN,387.461,16.60,1018.58,88.30,NaN,317.0,NaN,1.9,NaN,256.6,NaN,4.1,NaN,NaN, NaN,NaN,62.0,NaN,NaN,NaN,2,10.0,001916,   NaN,60.8,     NaN,      NaN,NaN,6.8,NaN,16.596, NaN,NaN,NaN, NaN, NaN

20040115,003228,797370,32.228667,-123.530833,NaN,16.592,32.937,42.140,  NaN,0.0, NaN, NaN, NaN, NaN, NaN,387.549,16.40,1018.66,88.40,NaN,322.0,NaN,1.9,NaN,259.7,NaN,3.8,NaN,NaN, NaN,NaN,61.0,NaN,NaN,NaN,2,10.1,001946,   NaN,61.5,     NaN,      NaN,NaN,6.8,NaN,16.596, NaN,NaN,NaN, NaN, NaN

20040115,003258,797400,32.229333,-123.529333,NaN,16.592,32.936,42.139,  NaN,0.0, NaN, NaN, NaN, NaN, NaN,387.575,16.40,1018.54,88.50,NaN,314.0,NaN,2.1,NaN,264.3,NaN,3.9,NaN,NaN, NaN,NaN,62.0,NaN,NaN,NaN,2,9.9,001976,   NaN,60.9,     NaN,      NaN,NaN,6.9,NaN,16.596, NaN,NaN,NaN, NaN, NaN

20040115,003328,797430,32.230000,-123.527833,NaN,16.603,32.935,42.148,  NaN,0.0, NaN, NaN, NaN, NaN, NaN,387.897,16.40,1018.61,88.50,NaN,313.0,NaN,1.7,NaN,259.8,NaN,4.1,NaN,NaN, NaN,NaN,62.0,NaN,NaN,NaN,2,9.9,002006,   NaN,61.6,     NaN,      NaN,NaN,6.8,NaN,16.607, NaN,NaN,NaN, NaN, NaN

20040115,003358,797460,32.230667,-123.526333,NaN,16.615,32.936,42.161,  NaN,0.0, NaN, NaN, NaN, NaN, NaN,388.101,16.60,1018.43,88.50,NaN,315.0,NaN,1.7,NaN,256.1,NaN,4.1,NaN,NaN, NaN,NaN,61.0,NaN,NaN,NaN,2,9.9,002036,   NaN,58.8,     NaN,      NaN,NaN,6.5,NaN,16.619, NaN,NaN,NaN, NaN, NaN

20040115,003428,797490,32.231333,-123.525000,NaN,16.608,32.938,42.156,  NaN,0.0, NaN, NaN, NaN, NaN, NaN,387.856,16.40,1018.53,88.40,NaN,316.0,NaN,1.7,NaN,258.1,NaN,4.1,NaN,NaN, NaN,NaN,60.0,NaN,NaN,NaN,2,10.1,002066,   NaN,59.7,     NaN,      NaN,NaN,6.6,NaN,16.612, NaN,NaN,NaN, NaN, NaN

20040115,003458,797520,32.232000,-123.523500,NaN,16.594,32.938,42.143,  NaN,0.0, NaN, NaN, NaN, NaN, NaN,387.543,16.40,1018.53,88.30,NaN,313.0,NaN,1.0,NaN,249.3,NaN,4.6,NaN,NaN, NaN,NaN,62.0,NaN,NaN,NaN,2,10.0,002096,   NaN,61.3,     NaN,      NaN,NaN,6.7,NaN,16.599, NaN,NaN,NaN, NaN, NaN

20040115,003528,797550,32.232667,-123.522167,NaN,16.591,32.937,42.139,  NaN,0.0, NaN, NaN, NaN, NaN, NaN,387.489,16.40,1018.62,88.30,NaN,319.0,NaN,1.2,NaN,251.4,NaN,4.3,NaN,NaN, NaN,NaN,62.0,NaN,NaN,NaN,2,10.0,002126,   NaN,61.0,     NaN,      NaN,NaN,6.9,NaN,16.595, NaN,NaN,NaN, NaN, NaN

20040115,003558,797580,32.233333,-123.520667,NaN,16.593,32.937,42.140,  NaN,0.0, NaN, NaN, NaN, NaN, NaN,387.572,16.40,1018.59,88.30,NaN,314.0,NaN,1.1,NaN,248.6,NaN,4.6,NaN,NaN, NaN,NaN,62.0,NaN,NaN,NaN,2,10.1,002156,   NaN,59.9,     NaN,      NaN,NaN,6.9,NaN,16.597, NaN,NaN,NaN, NaN, NaN

20040115,003628,797610,32.234000,-123.519167,NaN,16.593,32.937,42.140,  NaN,0.0, NaN, NaN, NaN, NaN, NaN,387.572,16.40,1018.56,88.10,NaN,316.0,NaN,0.8,NaN,248.9,NaN,4.5,NaN,NaN, NaN,NaN,61.0,NaN,NaN,NaN,2,9.8,002186,   NaN,61.1,     NaN,      NaN,NaN,6.7,NaN,16.597, NaN,NaN,NaN, NaN, NaN

20040115,003658,797640,32.234667,-123.517833,NaN,16.585,32.937,42.133,  NaN,0.0, NaN, NaN, NaN, NaN, NaN,387.373,16.40,1018.61,88.00,NaN,315.0,NaN,0.0,NaN,240.6,NaN,5.1,NaN,NaN, NaN,NaN,61.0,NaN,NaN,NaN,2,9.9,002216,   NaN,60.4,     NaN,      NaN,NaN,6.8,NaN,16.589, NaN,NaN,NaN, NaN, NaN

20040115,003728,797670,32.235333,-123.516333,NaN,16.581,32.937,42.129,  NaN,0.0, NaN, NaN, NaN, NaN, NaN,387.319,16.40,1018.69,88.10,NaN,317.0,NaN,0.0,NaN,241.1,NaN,5.1,NaN,NaN, NaN,NaN,61.0,NaN,NaN,NaN,2,10.0,002246,   NaN,61.3,     NaN,      NaN,NaN,6.7,NaN,16.585, NaN,NaN,NaN, NaN, NaN

20040115,003758,797700,32.236000,-123.514833,NaN,16.592,32.936,42.139,  NaN,0.0, NaN, NaN, NaN, NaN, NaN,387.618,16.40,1018.57,88.50,NaN,316.0,NaN,0.0,NaN,241.2,NaN,4.9,NaN,NaN, NaN,NaN,62.0,NaN,NaN,NaN,2,9.9,002276,   NaN,59.6,     NaN,      NaN,NaN,6.8,NaN,16.596, NaN,NaN,NaN, NaN, NaN

20040115,003828,797730,32.236667,-123.513500,NaN,16.594,32.936,42.141,  NaN,0.0, NaN, NaN, NaN, NaN, NaN,387.632,16.60,1018.55,88.40,NaN,312.0,NaN,0.0,NaN,241.4,NaN,5.2,NaN,NaN, NaN,NaN,63.0,NaN,NaN,NaN,2,10.2,002306,   NaN,60.6,     NaN,      NaN,NaN,6.5,NaN,16.599, NaN,NaN,NaN, NaN, NaN

20040115,003858,797760,32.237333,-123.512000,NaN,16.586,32.937,42.134,  NaN,0.0, NaN, NaN, NaN, NaN, NaN,387.371,16.60,1018.52,88.50,NaN,312.0,NaN,0.0,NaN,241.9,NaN,5.1,NaN,NaN, NaN,NaN,62.0,NaN,NaN,NaN,2,10.0,002336,   NaN,62.1,     NaN,      NaN,NaN,6.7,NaN,16.590, NaN,NaN,NaN, NaN, NaN

20040115,003928,797790,32.237833,-123.510500,NaN,16.581,32.937,42.129,  NaN,0.0, NaN, NaN, NaN, NaN, NaN,387.298,16.60,1018.43,88.50,NaN,316.0,NaN,0.2,NaN,243.9,NaN,4.9,NaN,NaN, NaN,NaN,64.0,NaN,NaN,NaN,2,9.7,002366,   NaN,62.7,     NaN,      NaN,NaN,6.7,NaN,16.585, NaN,NaN,NaN, NaN, NaN

20040115,003958,797820,32.238500,-123.509000,NaN,16.574,32.937,42.123,  NaN,0.0, NaN, NaN, NaN, NaN, NaN,387.117,16.60,1018.48,88.50,NaN,322.0,NaN,1.0,NaN,245.7,NaN,4.8,NaN,NaN, NaN,NaN,63.0,NaN,NaN,NaN,2,10.1,002396,   NaN,61.5,     NaN,      NaN,NaN,6.8,NaN,16.578, NaN,NaN,NaN, NaN, NaN

20040115,004028,797850,32.239167,-123.507667,NaN,16.581,32.935,42.127,  NaN,0.0, NaN, NaN, NaN, NaN, NaN,387.476,16.60,1018.53,88.30,NaN,311.0,NaN,0.0,NaN,243.3,NaN,5.1,NaN,NaN, NaN,NaN,64.0,NaN,NaN,NaN,2,9.9,002426,   NaN,63.3,     NaN,      NaN,NaN,6.8,NaN,16.585, NaN,NaN,NaN, NaN, NaN

20040115,004058,797880,32.239667,-123.506167,NaN,16.603,32.934,42.147,  NaN,0.0, NaN, NaN, NaN, NaN, NaN,387.984,16.40,1018.50,88.00,NaN,310.0,NaN,0.2,NaN,242.1,NaN,5.1,NaN,NaN, NaN,NaN,64.0,NaN,NaN,NaN,2,10.0,002456,   NaN,62.1,     NaN,      NaN,NaN,6.6,NaN,16.607, NaN,NaN,NaN, NaN, NaN
